Weather History for KPMP - December, 2013

Change the Weather History Date:

Saturday, December 14, 2013

  Actual Average Record
Temperature  
Mean Temperature 78 °F -  
Max Temperature 82 °F 78 °F 87 °F (1963)
Min Temperature 75 °F 60 °F 35 °F (2010)
Cooling Degree Days 14    
Growing Degree Days 28 (Base 50)    
Moisture  
Dew Point 69 °F    
Average Humidity 74    
Maximum Humidity 79    
Minimum Humidity 67    
Precipitation  
Precipitation 0.00 in - - ()
Sea Level Pressure  
Sea Level Pressure 30.06 in    
Wind  
Wind Speed 15 mph (SE)    
Max Wind Speed 20 mph    
Max Gust Speed 28 mph    
Visibility 10 miles    
Events      
Averages and records for this station are not official NWS values.
T = Trace of Precipitation, MM = Missing Value Source: NWS Daily Summary

Daily Weather History Graph

Daily Weather History Graph

Search for Another Location

Airport or City:

Trip Planner

Search our weather history database for the weather conditions in past years. The results will help you decide how hot, cold, wet, or windy it might be!

Date:

Astronomy

Dec. 14, 2013 Rise Set
Actual Time 6:59 AM EST 5:30 PM EST
Civil Twilight 6:34 AM EST 5:55 PM EST
Nautical Twilight 6:05 AM EST 6:24 PM EST
Astronomical Twilight 5:37 AM EST 6:52 PM EST
Moon 3:42 PM EST (12/14) 4:29 AM EST (12/14)
Length of Visible Light 11h 21m
Length of Day
10h 30m
Waxing Gibbous, 93% of the Moon is Illuminated
Dec 14
Waxing Gibbous
Dec 17
Full
Dec 25
Last Quarter
Jan 1
New
Jan 7
First Quarter

Hourly Weather History & Observations

Time (EST) Temp. Heat Index Dew Point Humidity Pressure Visibility Wind Dir Wind Speed Gust Speed Precip Events Conditions
12:00 AM 75.2 °F - 66.2 °F 73% 30.10 in 10.0 mi ESE 16.1 mph 25.3 mph N/A   Mostly Cloudy
12:42 AM 75.2 °F - 66.2 °F 73% 30.10 in 10.0 mi ESE 17.3 mph 24.2 mph N/A   Overcast
12:53 AM 75.9 °F - 66.9 °F 74% 30.10 in 10.0 mi ESE 13.8 mph 24.2 mph N/A   Overcast
1:19 AM 75.2 °F - 68.0 °F 78% 30.09 in 10.0 mi ESE 13.8 mph 20.7 mph N/A   Overcast
1:44 AM 75.2 °F - 66.2 °F 73% 30.09 in 10.0 mi ESE 15.0 mph - N/A   Overcast
1:53 AM 75.9 °F - 68.0 °F 76% 30.09 in 10.0 mi ESE 15.0 mph - N/A   Overcast
2:53 AM 75.9 °F - 66.9 °F 74% 30.08 in 10.0 mi ESE 16.1 mph - 0.00 in   Overcast
3:53 AM 75.9 °F - 66.9 °F 74% 30.07 in 10.0 mi SE 17.3 mph 25.3 mph N/A   Overcast
4:53 AM 75.9 °F - 66.9 °F 74% 30.06 in 10.0 mi ESE 19.6 mph 25.3 mph N/A   Overcast
5:08 AM 75.2 °F - 68.0 °F 78% 30.06 in 10.0 mi ESE 13.8 mph 24.2 mph N/A   Overcast
5:40 AM 75.2 °F - 68.0 °F 78% 30.06 in 10.0 mi SE 17.3 mph 24.2 mph N/A   Overcast
5:53 AM 75.9 °F - 68.0 °F 76% 30.07 in 10.0 mi ESE 17.3 mph 23.0 mph N/A   Overcast
6:53 AM 75.9 °F - 68.0 °F 76% 30.09 in 10.0 mi ESE 15.0 mph 21.9 mph N/A   Mostly Cloudy
7:17 AM 75.2 °F - 68.0 °F 78% 30.09 in 10.0 mi SE 16.1 mph 23.0 mph N/A   Mostly Cloudy
7:24 AM 75.2 °F - 68.0 °F 78% 30.09 in 10.0 mi SE 13.8 mph - N/A   Mostly Cloudy
7:53 AM 77.0 °F - 69.1 °F 76% 30.09 in 10.0 mi ESE 13.8 mph 23.0 mph N/A   Scattered Clouds
8:53 AM 78.1 °F - 68.0 °F 71% 30.10 in 10.0 mi ESE 16.1 mph 27.6 mph N/A   Scattered Clouds
9:53 AM 80.1 °F 82.9 °F 69.1 °F 69% 30.12 in 10.0 mi SE 17.3 mph 21.9 mph N/A   Scattered Clouds
10:53 AM 81.0 °F 84.1 °F 69.1 °F 67% 30.11 in 10.0 mi SE 16.1 mph 23.0 mph N/A   Scattered Clouds
11:53 AM 81.0 °F 84.4 °F 70.0 °F 69% 30.08 in 10.0 mi ESE 16.1 mph - N/A   Mostly Cloudy
12:53 PM 81.0 °F 84.1 °F 69.1 °F 67% 30.04 in 10.0 mi SE 18.4 mph 24.2 mph N/A   Scattered Clouds
1:53 PM 82.0 °F 85.9 °F 70.0 °F 67% 30.02 in 10.0 mi SE 17.3 mph 20.7 mph N/A   Scattered Clouds
2:53 PM 80.1 °F 82.9 °F 69.1 °F 69% 30.01 in 10.0 mi SE 13.8 mph 21.9 mph N/A   Scattered Clouds
3:53 PM 79.0 °F - 69.1 °F 72% 30.01 in 10.0 mi South 10.4 mph 18.4 mph N/A   Scattered Clouds
4:53 PM 79.0 °F - 70.0 °F 74% 30.02 in 10.0 mi SSE 11.5 mph - N/A   Scattered Clouds
5:53 PM 79.0 °F - 69.1 °F 72% 30.03 in 10.0 mi South 8.1 mph - N/A   Mostly Cloudy
6:53 PM 78.1 °F - 70.0 °F 76% 30.03 in 10.0 mi SSE 10.4 mph - N/A   Scattered Clouds
7:53 PM 78.1 °F - 70.0 °F 76% 30.04 in 10.0 mi SSE 8.1 mph - N/A   Scattered Clouds
8:53 PM 78.1 °F - 71.1 °F 79% 30.03 in 10.0 mi SE 10.4 mph - N/A   Scattered Clouds
9:53 PM 78.1 °F - 71.1 °F 79% 30.02 in 10.0 mi South 10.4 mph 17.3 mph 0.00 in   Partly Cloudy
10:53 PM 78.1 °F - 71.1 °F 79% 30.02 in 10.0 mi South 9.2 mph - N/A   Partly Cloudy
11:53 PM 78.1 °F - 71.1 °F 79% 30.01 in 10.0 mi South 11.5 mph 18.4 mph N/A   Scattered Clouds